When you browse on this site, cookies collect data to enhance your experience and personalize the content and advertising you see.
Visit our Privacy Policy to learn more. By continuing to use the site, you agree to this use of cookies and data.
  • In Sweden
  • List of Countries
  • For 7 days
  • Water Temperature
  • Weather Map
  • Weather Widgets
  • user-avatar
    Login

    Hourly Weather Aguilar

    Today, 5 June, Friday

    Time Temperature Precipitation Wind Pressure Humidity
    00:00 +8°C° 0 mm 5 mps 678 mmHg 84%
    01:00 +8°C° 0 mm 4 mps 678 mmHg 84%
    02:00 +8°C° 0 mm 3 mps 678 mmHg 84%
    03:00 +8°C° 0 mm 3 mps 678 mmHg 84%
    04:00 +8°C° 0 mm 3 mps 678 mmHg 82%
    05:00 +9°C° 0 mm 3 mps 678 mmHg 80%
    06:00 +9°C° 0 mm 3 mps 678 mmHg 78%
    07:00 +11°C° 0 mm 3 mps 679 mmHg 71%
    08:00 +12°C° 0 mm 3 mps 679 mmHg 64%
    09:00 +14°C° 0 mm 3 mps 680 mmHg 57%
    10:00 +15°C° 0 mm 4 mps 680 mmHg 55%
    11:00 +18°C° 0 mm 4 mps 680 mmHg 52%
    12:00 +19°C° 0 mm 4 mps 680 mmHg 49%
    13:00 +20°C° 0 mm 4 mps 680 mmHg 50%
    14:00 +20°C° 0 mm 4 mps 680 mmHg 50%
    15:00 +21°C° 0 mm 4 mps 680 mmHg 50%
    16:00 +20°C° 0 mm 4 mps 680 mmHg 53%
    17:00 +20°C° 0 mm 3 mps 679 mmHg 56%
    18:00 +19°C° 0 mm 3 mps 679 mmHg 59%
    19:00 +17°C° 0 mm 2 mps 679 mmHg 67%
    20:00 +15°C° 0 mm 2 mps 679 mmHg 74%
    21:00 +14°C° 0 mm 1 mps 679 mmHg 82%
    22:00 +13°C° 0 mm 1 mps 679 mmHg 83%
    23:00 +13°C° 0 mm 1 mps 679 mmHg 85%

    Tomorrow, 6 June, Saturday

    Time Temperature Precipitation Wind Pressure Humidity
    00:00 +12°C° 0 mm 1 mps 679 mmHg 86%
    01:00 +12°C° 0 mm 1 mps 679 mmHg 87%
    02:00 +12°C° 0 mm 1 mps 679 mmHg 88%
    03:00 +11°C° 0 mm 1 mps 679 mmHg 89%
    04:00 +12°C° 0 mm 1 mps 679 mmHg 87%
    05:00 +13°C° 0 mm 1 mps 679 mmHg 84%
    06:00 +13°C° 0 mm 1 mps 679 mmHg 82%
    07:00 +15°C° 0 mm 1 mps 679 mmHg 76%
    08:00 +16°C° 0 mm 2 mps 679 mmHg 71%
    09:00 +18°C° 0 mm 2 mps 679 mmHg 65%
    10:00 +18°C° 0.4 mm 2 mps 679 mmHg 63%
    11:00 +19°C° 0.4 mm 3 mps 679 mmHg 62%
    12:00 +20°C° 0.4 mm 3 mps 679 mmHg 60%
    13:00 +20°C° 1.4 mm 3 mps 679 mmHg 61%
    14:00 +20°C° 1.4 mm 3 mps 678 mmHg 61%
    15:00 +20°C° 1.4 mm 3 mps 678 mmHg 61%
    16:00 +20°C° 1.4 mm 3 mps 678 mmHg 65%
    17:00 +19°C° 1.4 mm 3 mps 677 mmHg 69%
    18:00 +18°C° 1.4 mm 4 mps 677 mmHg 72%
    19:00 +17°C° 0.7 mm 3 mps 677 mmHg 77%
    20:00 +14°C° 0.7 mm 3 mps 677 mmHg 83%
    21:00 +13°C° 0.7 mm 3 mps 678 mmHg 88%
    22:00 +13°C° 0.1 mm 3 mps 677 mmHg 89%
    23:00 +12°C° 0.1 mm 3 mps 677 mmHg 90%

    Day after tomorrow, 7 June, Sunday

    Time Temperature Precipitation Wind Pressure Humidity
    00:00 +12°C° 0.1 mm 3 mps 677 mmHg 91%
    01:00 +13°C° 0 mm 2 mps 677 mmHg 91%
    02:00 +13°C° 0 mm 2 mps 677 mmHg 90%
    03:00 +12°C° 0 mm 2 mps 676 mmHg 90%
    04:00 +12°C° 0.1 mm 2 mps 677 mmHg 88%
    05:00 +13°C° 0.1 mm 2 mps 677 mmHg 87%
    06:00 +13°C° 0.1 mm 2 mps 677 mmHg 86%
    07:00 +13°C° 0.1 mm 2 mps 677 mmHg 84%
    08:00 +13°C° 0.1 mm 3 mps 677 mmHg 83%
    09:00 +13°C° 0.1 mm 3 mps 678 mmHg 81%
    10:00 +13°C° 0.5 mm 4 mps 678 mmHg 81%
    11:00 +13°C° 0.5 mm 4 mps 678 mmHg 81%
    12:00 +13°C° 0.5 mm 5 mps 678 mmHg 80%
    13:00 +12°C° 0.1 mm 5 mps 678 mmHg 80%
    14:00 +11°C° 0.1 mm 6 mps 678 mmHg 80%
    15:00 +10°C° 0.1 mm 6 mps 677 mmHg 80%
    16:00 +10°C° 0 mm 6 mps 678 mmHg 78%
    17:00 +10°C° 0 mm 6 mps 678 mmHg 77%
    18:00 +10°C° 0 mm 6 mps 678 mmHg 76%
    19:00 +9°C° 0 mm 6 mps 679 mmHg 78%
    20:00 +8°C° 0 mm 5 mps 679 mmHg 79%
    21:00 +7°C° 0 mm 4 mps 679 mmHg 81%
    22:00 +7°C° 0 mm 4 mps 679 mmHg 81%
    23:00 +6°C° 0 mm 4 mps 679 mmHg 81%

    8 June, Monday

    Time Temperature Precipitation Wind Pressure Humidity
    00:00 +5°C° 0 mm 4 mps 679 mmHg 81%
    01:00 +5°C° 0 mm 4 mps 679 mmHg 80%
    02:00 +4°C° 0 mm 4 mps 679 mmHg 79%
    03:00 +4°C° 0 mm 4 mps 679 mmHg 78%
    04:00 +5°C° 0 mm 4 mps 679 mmHg 77%
    05:00 +5°C° 0 mm 4 mps 680 mmHg 76%
    06:00 +6°C° 0 mm 4 mps 680 mmHg 75%
    07:00 +7°C° 0 mm 4 mps 680 mmHg 69%
    08:00 +9°C° 0 mm 5 mps 681 mmHg 64%
    09:00 +12°C° 0 mm 5 mps 681 mmHg 58%
    10:00 +13°C° 0 mm 5 mps 681 mmHg 57%
    11:00 +14°C° 0 mm 6 mps 681 mmHg 56%
    12:00 +14°C° 0 mm 6 mps 681 mmHg 55%
    13:00 +15°C° 0 mm 6 mps 681 mmHg 54%
    14:00 +15°C° 0 mm 6 mps 681 mmHg 52%
    15:00 +16°C° 0 mm 6 mps 681 mmHg 50%
    16:00 +15°C° 0 mm 7 mps 681 mmHg 54%
    17:00 +14°C° 0 mm 7 mps 681 mmHg 59%
    18:00 +14°C° 0 mm 7 mps 681 mmHg 63%
    19:00 +11°C° 0 mm 6 mps 681 mmHg 69%
    20:00 +10°C° 0 mm 5 mps 681 mmHg 75%
    21:00 +10°C° 0 mm 4 mps 682 mmHg 81%
    22:00 +8°C° 0 mm 4 mps 682 mmHg 81%
    23:00 +8°C° 0 mm 4 mps 682 mmHg 82%

    9 June, Tuesday

    Time Temperature Precipitation Wind Pressure Humidity
    00:00 +7°C° 0 mm 4 mps 682 mmHg 83%
    01:00 +7°C° 0 mm 4 mps 682 mmHg 83%
    02:00 +8°C° 0 mm 3 mps 682 mmHg 83%
    03:00 +8°C° 0 mm 3 mps 681 mmHg 84%
    04:00 +8°C° 0 mm 3 mps 682 mmHg 83%
    05:00 +9°C° 0 mm 3 mps 682 mmHg 81%
    06:00 +10°C° 0 mm 3 mps 682 mmHg 80%
    07:00 +11°C° 0 mm 4 mps 682 mmHg 73%
    08:00 +12°C° 0 mm 4 mps 683 mmHg 66%
    09:00 +14°C° 0 mm 5 mps 683 mmHg 60%
    10:00 +15°C° 0 mm 5 mps 683 mmHg 57%
    11:00 +16°C° 0 mm 5 mps 683 mmHg 54%
    12:00 +17°C° 0 mm 5 mps 684 mmHg 51%
    13:00 +17°C° 0 mm 5 mps 683 mmHg 51%
    14:00 +17°C° 0 mm 5 mps 683 mmHg 51%
    15:00 +19°C° 0 mm 5 mps 683 mmHg 51%
    16:00 +17°C° 0 mm 6 mps 683 mmHg 55%
    17:00 +16°C° 0 mm 6 mps 683 mmHg 58%
    18:00 +15°C° 0 mm 6 mps 683 mmHg 62%
    19:00 +14°C° 0 mm 5 mps 683 mmHg 67%
    20:00 +13°C° 0 mm 5 mps 683 mmHg 72%
    21:00 +11°C° 0 mm 4 mps 684 mmHg 77%
    22:00 +10°C° 0 mm 4 mps 683 mmHg 77%
    23:00 +10°C° 0 mm 3 mps 683 mmHg 76%

    10 June, Wednesday

    Time Temperature Precipitation Wind Pressure Humidity
    00:00 +9°C° 0 mm 3 mps 683 mmHg 75%
    01:00 +9°C° 0 mm 3 mps 683 mmHg 73%
    02:00 +8°C° 0 mm 3 mps 683 mmHg 71%
    03:00 +8°C° 0 mm 3 mps 682 mmHg 69%
    04:00 +9°C° 0 mm 2 mps 683 mmHg 67%
    05:00 +9°C° 0 mm 2 mps 683 mmHg 65%
    06:00 +10°C° 0 mm 2 mps 683 mmHg 62%
    07:00 +11°C° 0 mm 3 mps 683 mmHg 57%
    08:00 +13°C° 0 mm 3 mps 683 mmHg 52%
    09:00 +14°C° 0 mm 3 mps 683 mmHg 47%
    10:00 +16°C° 0 mm 3 mps 684 mmHg 46%
    11:00 +18°C° 0 mm 3 mps 684 mmHg 45%
    12:00 +19°C° 0 mm 3 mps 684 mmHg 43%
    13:00 +19°C° 0 mm 3 mps 683 mmHg 43%
    14:00 +20°C° 0 mm 3 mps 683 mmHg 44%
    15:00 +20°C° 0 mm 4 mps 683 mmHg 44%
    16:00 +19°C° 0.1 mm 4 mps 683 mmHg 47%
    17:00 +19°C° 0.1 mm 4 mps 682 mmHg 51%
    18:00 +18°C° 0.1 mm 4 mps 682 mmHg 54%
    19:00 +17°C° 0 mm 3 mps 682 mmHg 60%
    20:00 +14°C° 0 mm 3 mps 682 mmHg 66%
    21:00 +14°C° 0 mm 2 mps 682 mmHg 72%
    22:00 +14°C° 0 mm 2 mps 682 mmHg 74%
    23:00 +13°C° 0 mm 2 mps 682 mmHg 75%
    Show more